HST
1 20580U 90037B   25192.18713936  .00003223  00000-0  11537-3 0  9991
2 20580  28.4674 242.2118 0001984  10.7544 349.3093 15.25532040736612
ISS (ZARYA)
1 25544U 98067A   25192.17826678  .00006493  00000-0  11964-3 0  9990
2 25544  51.6335 188.1561 0002807 356.4989   3.5980 15.50477807518885
CXO
1 25867U 99040B   25193.23688302  .00000730  00000-0  00000+0 0  9991
2 25867  49.9889 128.6492 8381586 309.7673   0.3172  0.37796383 27191